When you browse on this site, cookies collect data to enhance your experience and personalize the content and advertising you see.
Visit our Privacy Policy to learn more. By continuing to use the site, you agree to this use of cookies and data.
  • Em Portugal
  • Lista de países
  • Para 7 dias
  • Temperatura da água
  • Mapas de satélite
  • Mapa do tempo
  • Widgets de tempo
  • user-avatar
    Iniciar Sessão

    Previsão horária em Primorsko

    Hoje, 17 Fevereiro, Domingo

    Tempo Temperatura Precipitação Vento Pressão Humidade
    00:00 +4°C° 0 mm 2 m/s 771 mmHg 80%
    01:00 +4°C° 0 mm 2 m/s 771 mmHg 81%
    02:00 +4°C° 0 mm 2 m/s 771 mmHg 82%
    03:00 +4°C° 0 mm 2 m/s 770 mmHg 82%
    04:00 +4°C° 0 mm 2 m/s 770 mmHg 82%
    05:00 +3°C° 0 mm 2 m/s 770 mmHg 83%
    06:00 +4°C° 0 mm 2 m/s 770 mmHg 81%
    07:00 +4°C° 0 mm 2 m/s 770 mmHg 79%
    08:00 +4°C° 0 mm 2 m/s 770 mmHg 77%
    09:00 +6°C° 0 mm 2 m/s 770 mmHg 70%
    10:00 +7°C° 0 mm 2 m/s 770 mmHg 63%
    11:00 +10°C° 0 mm 1 m/s 770 mmHg 57%
    12:00 +11°C° 0 mm 1 m/s 770 mmHg 54%
    13:00 +12°C° 0 mm 1 m/s 769 mmHg 52%
    14:00 +12°C° 0 mm 1 m/s 769 mmHg 49%
    15:00 +12°C° 0 mm 1 m/s 768 mmHg 52%
    16:00 +12°C° 0 mm 1 m/s 768 mmHg 56%
    17:00 +11°C° 0 mm 1 m/s 768 mmHg 59%
    18:00 +10°C° 0 mm 1 m/s 768 mmHg 62%
    19:00 +10°C° 0 mm 1 m/s 768 mmHg 64%
    20:00 +8°C° 0 mm 2 m/s 768 mmHg 67%
    21:00 +8°C° 0 mm 2 m/s 768 mmHg 67%
    22:00 +7°C° 0 mm 2 m/s 768 mmHg 67%
    23:00 +7°C° 0 mm 2 m/s 768 mmHg 67%

    Amanhã, 18 Fevereiro, Segunda-feira

    Tempo Temperatura Precipitação Vento Pressão Humidade
    00:00 +7°C° 0 mm 2 m/s 768 mmHg 67%
    01:00 +7°C° 0 mm 2 m/s 768 mmHg 68%
    02:00 +7°C° 0 mm 2 m/s 768 mmHg 68%
    03:00 +7°C° 0 mm 2 m/s 767 mmHg 69%
    04:00 +6°C° 0 mm 2 m/s 767 mmHg 69%
    05:00 +6°C° 0 mm 2 m/s 767 mmHg 70%
    06:00 +6°C° 0 mm 2 m/s 767 mmHg 68%
    07:00 +7°C° 0 mm 2 m/s 767 mmHg 67%
    08:00 +7°C° 0 mm 2 m/s 767 mmHg 66%
    09:00 +8°C° 0 mm 2 m/s 768 mmHg 60%
    10:00 +10°C° 0 mm 2 m/s 768 mmHg 55%
    11:00 +13°C° 0 mm 2 m/s 768 mmHg 50%
    12:00 +13°C° 0 mm 2 m/s 768 mmHg 50%
    13:00 +14°C° 0 mm 2 m/s 767 mmHg 50%
    14:00 +14°C° 0 mm 2 m/s 767 mmHg 50%
    15:00 +14°C° 0 mm 2 m/s 767 mmHg 54%
    16:00 +13°C° 0 mm 2 m/s 767 mmHg 59%
    17:00 +12°C° 0 mm 2 m/s 767 mmHg 64%
    18:00 +10°C° 0 mm 2 m/s 767 mmHg 68%
    19:00 +9°C° 0 mm 2 m/s 767 mmHg 71%
    20:00 +8°C° 0 mm 2 m/s 767 mmHg 75%
    21:00 +8°C° 0 mm 2 m/s 768 mmHg 76%
    22:00 +7°C° 0 mm 2 m/s 768 mmHg 77%
    23:00 +8°C° 0 mm 1 m/s 768 mmHg 77%

    Depois de amanhã, 19 Fevereiro, Terça-feira

    Tempo Temperatura Precipitação Vento Pressão Humidade
    00:00 +8°C° 0 mm 1 m/s 768 mmHg 79%
    01:00 +8°C° 0 mm 1 m/s 768 mmHg 81%
    02:00 +8°C° 0 mm 1 m/s 768 mmHg 82%
    03:00 +7°C° 0 mm 1 m/s 768 mmHg 83%
    04:00 +7°C° 0 mm 1 m/s 768 mmHg 84%
    05:00 +7°C° 0 mm 1 m/s 767 mmHg 85%
    06:00 +7°C° 0 mm 1 m/s 768 mmHg 85%
    07:00 +8°C° 0 mm 1 m/s 768 mmHg 85%
    08:00 +7°C° 0 mm 2 m/s 768 mmHg 85%
    09:00 +8°C° 0 mm 2 m/s 768 mmHg 79%
    10:00 +10°C° 0 mm 2 m/s 768 mmHg 73%
    11:00 +12°C° 0 mm 3 m/s 768 mmHg 66%
    12:00 +12°C° 0 mm 3 m/s 768 mmHg 65%
    13:00 +13°C° 0 mm 3 m/s 768 mmHg 63%
    14:00 +13°C° 0 mm 3 m/s 767 mmHg 61%
    15:00 +12°C° 0 mm 3 m/s 767 mmHg 65%
    16:00 +12°C° 0 mm 4 m/s 767 mmHg 70%
    17:00 +11°C° 0 mm 4 m/s 767 mmHg 74%
    18:00 +10°C° 0 mm 4 m/s 767 mmHg 78%
    19:00 +8°C° 0 mm 4 m/s 767 mmHg 83%
    20:00 +8°C° 0 mm 3 m/s 767 mmHg 87%
    21:00 +8°C° 0 mm 3 m/s 767 mmHg 87%
    22:00 +8°C° 0 mm 3 m/s 767 mmHg 86%
    23:00 +8°C° 0 mm 3 m/s 767 mmHg 86%

    20 Fevereiro, Quarta-feira

    Tempo Temperatura Precipitação Vento Pressão Humidade
    00:00 +7°C° 0 mm 3 m/s 767 mmHg 85%
    01:00 +7°C° 0 mm 2 m/s 766 mmHg 84%
    02:00 +7°C° 0 mm 2 m/s 766 mmHg 84%
    03:00 +7°C° 0 mm 2 m/s 766 mmHg 82%
    04:00 +7°C° 0 mm 2 m/s 766 mmHg 81%
    05:00 +7°C° 0 mm 2 m/s 765 mmHg 79%
    06:00 +7°C° 0 mm 2 m/s 765 mmHg 76%
    07:00 +7°C° 0 mm 2 m/s 766 mmHg 73%
    08:00 +7°C° 0 mm 2 m/s 766 mmHg 70%
    09:00 +9°C° 0 mm 2 m/s 766 mmHg 64%
    10:00 +12°C° 0 mm 2 m/s 766 mmHg 58%
    11:00 +14°C° 0 mm 2 m/s 766 mmHg 53%
    12:00 +15°C° 0 mm 2 m/s 765 mmHg 51%
    13:00 +16°C° 0 mm 1 m/s 765 mmHg 50%
    14:00 +18°C° 0 mm 1 m/s 765 mmHg 49%
    15:00 +16°C° 0 mm 1 m/s 765 mmHg 51%
    16:00 +16°C° 0 mm 1 m/s 765 mmHg 54%
    17:00 +15°C° 0 mm 1 m/s 765 mmHg 56%
    18:00 +14°C° 0 mm 1 m/s 765 mmHg 59%
    19:00 +13°C° 0 mm 1 m/s 765 mmHg 62%
    20:00 +12°C° 0 mm 1 m/s 766 mmHg 65%
    21:00 +10°C° 0 mm 2 m/s 766 mmHg 65%
    22:00 +10°C° 0 mm 2 m/s 766 mmHg 65%
    23:00 +9°C° 0 mm 3 m/s 767 mmHg 66%

    21 Fevereiro, Quinta-feira

    Tempo Temperatura Precipitação Vento Pressão Humidade
    00:00 +9°C° 0 mm 3 m/s 767 mmHg 67%
    01:00 +9°C° 0 mm 3 m/s 767 mmHg 69%
    02:00 +8°C° 0 mm 3 m/s 767 mmHg 71%
    03:00 +8°C° 0 mm 3 m/s 767 mmHg 74%
    04:00 +7°C° 0 mm 3 m/s 767 mmHg 77%
    05:00 +7°C° 0 mm 2 m/s 767 mmHg 80%
    06:00 +7°C° 0 mm 2 m/s 767 mmHg 80%
    07:00 +7°C° 0 mm 2 m/s 768 mmHg 79%
    08:00 +7°C° 0 mm 2 m/s 768 mmHg 79%
    09:00 +9°C° 0 mm 2 m/s 768 mmHg 72%
    10:00 +10°C° 0 mm 2 m/s 768 mmHg 65%
    11:00 +13°C° 0 mm 2 m/s 768 mmHg 59%
    12:00 +13°C° 0 mm 1 m/s 768 mmHg 56%
    13:00 +14°C° 0 mm 1 m/s 768 mmHg 54%
    14:00 +14°C° 0 mm 1 m/s 767 mmHg 52%
    15:00 +14°C° 0 mm 2 m/s 767 mmHg 55%
    16:00 +13°C° 0 mm 2 m/s 767 mmHg 59%
    17:00 +13°C° 0 mm 2 m/s 767 mmHg 63%
    18:00 +12°C° 0 mm 2 m/s 767 mmHg 68%
    19:00 +10°C° 0 mm 2 m/s 767 mmHg 73%
    20:00 +9°C° 0 mm 2 m/s 767 mmHg 78%
    21:00 +9°C° 0 mm 2 m/s 767 mmHg 76%
    22:00 +8°C° 0 mm 2 m/s 767 mmHg 75%
    23:00 +8°C° 0 mm 2 m/s 767 mmHg 73%

    22 Fevereiro, Sexta-feira

    Tempo Temperatura Precipitação Vento Pressão Humidade
    00:00 +8°C° 0 mm 2 m/s 767 mmHg 71%
    01:00 +8°C° 0 mm 2 m/s 767 mmHg 68%
    02:00 +7°C° 0 mm 2 m/s 767 mmHg 66%
    03:00 +7°C° 0 mm 2 m/s 767 mmHg 65%
    04:00 +7°C° 0 mm 2 m/s 766 mmHg 64%
    05:00 +7°C° 0 mm 2 m/s 766 mmHg 64%
    06:00 +7°C° 0 mm 2 m/s 766 mmHg 64%
    07:00 +7°C° 0 mm 2 m/s 766 mmHg 63%
    08:00 +7°C° 0 mm 2 m/s 766 mmHg 63%
    09:00 +9°C° 0 mm 2 m/s 765 mmHg 59%
    10:00 +10°C° 0 mm 2 m/s 765 mmHg 54%
    11:00 +13°C° 0 mm 1 m/s 765 mmHg 50%
    12:00 +13°C° 0 mm 1 m/s 764 mmHg 51%
    13:00 +13°C° 0 mm 1 m/s 764 mmHg 52%
    14:00 +13°C° 0 mm 1 m/s 763 mmHg 53%
    15:00 +13°C° 0.2 mm 1 m/s 763 mmHg 59%
    16:00 +12°C° 0.2 mm 1 m/s 762 mmHg 65%
    17:00 +11°C° 0.2 mm 1 m/s 762 mmHg 72%
    18:00 +11°C° 0.1 mm 1 m/s 762 mmHg 75%
    19:00 +10°C° 0.1 mm 1 m/s 762 mmHg 78%
    20:00 +9°C° 0.1 mm 2 m/s 762 mmHg 82%
    21:00 +9°C° 0 mm 1 m/s 762 mmHg 83%
    22:00 +9°C° 0 mm 1 m/s 762 mmHg 84%
    23:00 +9°C° 0 mm 1 m/s 762 mmHg 85%
    Mostrar mais